| time (UTC) | temp F | wind direction | speed MPH | gust MPH | rain 1hr in | rain 24hr in | rain mn in | humidity % | barometer mb |
| 20260904140222 | 72 | 74 | 3.0 | 17.0 | 0.00 | 0.00 | 0.00 | 32 | |
| 20260904135221 | 71 | 45 | 0.0 | 18.0 | 0.00 | 0.00 | 0.00 | 33 | |
| 20260904134221 | 73 | 56 | 2.0 | 13.0 | 0.00 | 0.00 | 0.00 | 32 | |
| 20260904133220 | 72 | 49 | 4.0 | 12.0 | 0.00 | 0.00 | 0.00 | 34 | |
| 20260904132219 | 71 | 33 | 2.0 | 17.0 | 0.00 | 0.00 | 0.00 | 34 | |
| 20260904131222 | 71 | 66 | 1.0 | 12.0 | 0.00 | 0.00 | 0.00 | 35 | |
| 20260904130220 | 70 | 39 | 1.0 | 17.0 | 0.00 | 0.00 | 0.00 | 35 | |
| 20260904125220 | 70 | 49 | 14.0 | 14.0 | 0.00 | 0.00 | 0.00 | 35 | |
| 20260904124218 | 69 | 45 | 2.0 | 20.0 | 0.00 | 0.00 | 0.00 | 100 | |
| 20260904123216 | 69 | 63 | 1.0 | 16.0 | 0.00 | 0.00 | 0.00 | 36 | |
| 20260904122216 | 69 | 47 | 3.0 | 14.0 | 0.00 | 0.00 | 0.00 | 37 | |
| 20260904121215 | 68 | 53 | 4.0 | 22.0 | 0.00 | 0.00 | 0.00 | 38 | |
| 20260904120215 | 67 | 45 | 11.0 | 21.0 | 0.00 | 0.00 | 0.00 | 39 | |
| 20260904115214 | 67 | 56 | 6.0 | 19.0 | 0.00 | 0.00 | 0.00 | 40 | |
| 20260904114214 | 67 | 47 | 2.0 | 17.0 | 0.00 | 0.00 | 0.00 | 39 | |
| 20260904113255 | 66 | 46 | 6.0 | 21.0 | 0.00 | 0.00 | 0.00 | 40 | |
| 20260904113213 | 66 | 46 | 6.0 | 21.0 | 0.00 | 0.00 | 0.00 | 40 | |
| 20260904112212 | 66 | 45 | 0.0 | 15.0 | 0.00 | 0.00 | 0.00 | 40 | |
| 20260904111212 | 65 | 49 | 6.0 | 18.0 | 0.00 | 0.00 | 0.00 | 42 | |
| 20260904110211 | 63 | 66 | 8.0 | 15.0 | 0.00 | 0.00 | 0.00 | 43 | |
| 20260904105211 | 64 | 46 | 12.0 | 15.0 | 0.00 | 0.00 | 0.00 | 44 | |
| 20260904104243 | 63 | 43 | 15.0 | 19.0 | 0.00 | 0.00 | 0.00 | 46 | |
| 20260904104210 | 63 | 43 | 15.0 | 19.0 | 0.00 | 0.00 | 0.00 | 46 | |
| 20260904103210 | 63 | 40 | 9.0 | 23.0 | 0.00 | 0.00 | 0.00 | 45 | |
| 20260904102209 | 62 | 59 | 3.0 | 17.0 | 0.00 | 0.00 | 0.00 | 46 | |
| 20260904101208 | 62 | 54 | 5.0 | 18.0 | 0.00 | 0.00 | 0.00 | 46 | |
| 20260904100208 | 63 | 54 | 3.0 | 18.0 | 0.00 | 0.00 | 0.00 | 47 | |
| 20260904095207 | 62 | 63 | 7.0 | 16.0 | 0.00 | 0.00 | 0.00 | 47 | |
| 20260904094207 | 63 | 56 | 3.0 | 23.0 | 0.00 | 0.00 | 0.00 | 47 | |
| 20260904093206 | 63 | 61 | 6.0 | 21.0 | 0.00 | 0.00 | 0.00 | 48 | |
| 20260904092205 | 64 | 21 | 0.0 | 13.0 | 0.00 | 0.00 | 0.00 | 47 | |
| 20260904091205 | 63 | 52 | 3.0 | 23.0 | 0.00 | 0.00 | 0.00 | 49 | |
| 20260904090204 | 64 | 57 | 7.0 | 16.0 | 0.00 | 0.00 | 0.00 | 49 | |
| 20260904085204 | 64 | 49 | 5.0 | 16.0 | 0.00 | 0.00 | 0.00 | 48 | |
| 20260904084203 | 64 | 42 | 10.0 | 13.0 | 0.00 | 0.00 | 0.00 | 47 | |
| 20260904083202 | 63 | 49 | 3.0 | 16.0 | 0.00 | 0.00 | 0.00 | 49 | |
| 20260904081701 | 63 | 60 | 14.0 | 16.0 | 0.00 | 0.00 | 0.00 | 49 | |
| 20260904080700 | 63 | 78 | 2.0 | 18.0 | 0.00 | 0.00 | 0.00 | 49 | |
| 20260904075700 | 63 | 64 | 18.0 | 20.0 | 0.00 | 0.00 | 0.00 | 48 | |
| 20260904074659 | 64 | 50 | 5.0 | 16.0 | 0.00 | 0.00 | 0.00 | 48 | |
| 20260904073658 | 63 | 67 | 0.0 | 16.0 | 0.00 | 0.00 | 0.00 | 48 | |
| 20260904072657 | 63 | 50 | 2.0 | 10.0 | 0.00 | 0.00 | 0.00 | 50 | |
| 20260904071657 | 62 | 61 | 6.0 | 13.0 | 0.00 | 0.00 | 0.00 | 50 | |
| 20260904070656 | 61 | 45 | 2.0 | 13.0 | 0.00 | 0.00 | 0.00 | 53 | |
| 20260904065656 | 59 | 59 | 0.0 | 9.0 | 0.00 | 0.00 | 0.00 | 100 | |
| 20260904064655 | 59 | 74 | 0.0 | 7.0 | 0.00 | 0.00 | 0.00 | 100 | |
| 20260904063655 | 58 | 49 | 0.0 | 6.0 | 0.00 | 0.00 | 0.00 | 100 | |
| 20260904062654 | 58 | 54 | 0.0 | 8.0 | 0.00 | 0.00 | 0.00 | 100 | |
| 20260904061653 | 57 | 61 | 9.0 | 15.0 | 0.00 | 0.00 | 0.00 | 61 | |
| 20260904060653 | 57 | 49 | 0.0 | 11.0 | 0.00 | 0.00 | 0.00 | 100 | |
| 20260904055652 | 55 | 45 | 4.0 | 13.0 | 0.00 | 0.00 | 0.00 | 64 | |
| 20260904054652 | 55 | 63 | 4.0 | 13.0 | 0.00 | 0.00 | 0.00 | 64 | |
| 20260904053651 | 55 | 56 | 0.0 | 11.0 | 0.00 | 0.00 | 0.00 | 64 | |
| 20260904052651 | 55 | 56 | 3.0 | 14.0 | 0.00 | 0.00 | 0.00 | 65 |